C31FR-13 Weather Reports


time (UTC)temp
C
wind
direction
speed
KPH
gust
KPH
rain 1hr
cm
rain 24hr
cm
rain mn
cm
humidity
%
barometer
mb
20260507161102 20 0.0 0.0 0.00 0.00 0.00 37 1010.5
20260507160602 20 0.0 0.0 0.00 0.00 0.00 35 1010.4
20260507155603 19 0.0 0.0 0.00 0.00 0.00 37 1010.5
20260507155102 19 0.0 0.0 0.00 0.00 0.00 36 1010.5
20260507154602 19 0.0 0.0 0.00 0.00 0.00 34 1010.4
20260507154102 19 0.0 0.0 0.00 0.00 0.00 34 1010.2
20260507153602 18 0.0 0.0 0.00 0.00 0.00 35 1010.3
20260507153103 18 0.0 0.0 0.00 0.00 0.00 36 1010.3
20260507152603 18 0.0 0.0 0.00 0.00 0.00 35 1010.3
20260507152101 18 0.0 0.0 0.00 0.00 0.00 36 1010.3
20260507151603 18 0.0 0.0 0.00 0.00 0.00 36 1010.4
20260507151103 18 0.0 0.0 0.00 0.00 0.00 35 1010.4
20260507150602 18 0.0 0.0 0.00 0.00 0.00 34 1010.3
20260507145603 18 0.0 0.0 0.00 0.00 0.00 33 1010.2
20260507145102 18 0.0 0.0 0.00 0.00 0.00 33 1010.2
20260507144603 18 0.0 0.0 0.00 0.00 0.00 32 1010.1
20260507144102 18 0.0 0.0 0.00 0.00 0.00 33 1010.1
20260507143603 18 0.0 0.0 0.00 0.00 0.00 32 1010.2
20260507142603 18 0.0 0.0 0.00 0.00 0.00 33 1010.3
20260507142101 17 0.0 0.0 0.00 0.00 0.00 34 1010.4
20260507141602 17 0.0 0.0 0.00 0.00 0.00 34 1010.4
20260507141102 17 0.0 0.0 0.00 0.00 0.00 36 1010.6
20260507140603 17 0.0 0.0 0.00 0.00 0.00 35 1010.5
20260507135603 17 0.0 0.0 0.00 0.00 0.00 37 1010.7
20260507135103 17 0.0 0.0 0.00 0.00 0.00 36 1010.8
20260507134602 17 0.0 0.0 0.00 0.00 0.00 36 1010.8
20260507134102 17 0.0 0.0 0.00 0.00 0.00 37 1010.8
20260507133603 17 0.0 0.0 0.00 0.00 0.00 38 1011.0
20260507133102 17 0.0 0.0 0.00 0.00 0.00 37 1011.0
20260507132603 17 0.0 0.0 0.00 0.00 0.00 38 1011.1
20260507132102 16 0.0 0.0 0.00 0.00 0.00 39 1011.1
20260507131603 16 0.0 0.0 0.00 0.00 0.00 38 1011.1
20260507131103 16 0.0 0.0 0.00 0.00 0.00 39 1011.2
20260507130602 16 0.0 0.0 0.00 0.00 0.00 39 1011.3
20260507125603 16 0.0 0.0 0.00 0.00 0.00 40 1011.3
20260507125103 16 0.0 0.0 0.00 0.00 0.00 40 1011.4
20260507124603 16 0.0 0.0 0.00 0.00 0.00 41 1011.4
20260507124103 16 0.0 0.0 0.00 0.00 0.00 41 1011.4
20260507123602 16 0.0 0.0 0.00 0.00 0.00 42 1011.5
20260507123102 16 0.0 0.0 0.00 0.00 0.00 42 1011.6
20260507122603 16 0.0 0.0 0.00 0.00 0.00 43 1011.6
20260507122102 15 0.0 0.0 0.00 0.00 0.00 44 1011.7
20260507121603 16 0.0 0.0 0.00 0.00 0.00 44 1011.7
20260507121103 15 0.0 0.0 0.00 0.00 0.00 44 1011.7
20260507120603 15 0.0 0.0 0.00 0.00 0.00 45 1011.8
20260507115603 15 0.0 0.0 0.00 0.00 0.00 45 1011.8
20260507115102 15 0.0 0.0 0.00 0.00 0.00 45 1011.9
20260507114602 15 0.0 0.0 0.00 0.00 0.00 45 1012.1
20260507114102 15 0.0 0.0 0.00 0.00 0.00 44 1012.1
20260507113603 15 0.0 0.0 0.00 0.00 0.00 45 1012.2
20260507113103 15 0.0 0.0 0.00 0.00 0.00 46 1012.3
20260507112602 15 0.0 0.0 0.00 0.00 0.00 45 1012.3
20260507112103 15 0.0 0.0 0.00 0.00 0.00 46 1012.3
20260507111602 15 0.0 0.0 0.00 0.00 0.00 46 1012.4
20260507111103 15 0.0 0.0 0.00 0.00 0.00 46 1012.5
20260507110602 15 0.0 0.0 0.00 0.00 0.00 46 1012.5
20260507105603 14 0.0 0.0 0.00 0.00 0.00 48 1012.7
20260507105103 14 0.0 0.0 0.00 0.00 0.00 48 1012.7
20260507104603 14 0.0 0.0 0.00 0.00 0.00 47 1012.7
20260507104102 14 0.0 0.0 0.00 0.00 0.00 45 1012.8
20260507103602 13 0.0 0.0 0.00 0.00 0.00 46 1012.8
20260507103102 13 0.0 0.0 0.00 0.00 0.00 47 1012.8
20260507102602 13 0.0 0.0 0.00 0.00 0.00 49 1012.9
20260507102102 13 0.0 0.0 0.00 0.00 0.00 50 1013.0
20260507101603 13 0.0 0.0 0.00 0.00 0.00 49 1013.1
20260507101102 13 0.0 0.0 0.00 0.00 0.00 49 1013.3
20260507100602 13 0.0 0.0 0.00 0.00 0.00 50 1013.4
20260507095603 13 0.0 0.0 0.00 0.00 0.00 52 1013.4
20260507095103 12 0.0 0.0 0.00 0.00 0.00 53 1013.4
20260507094603 12 0.0 0.0 0.00 0.00 0.00 52 1013.5
20260507094102 12 0.0 0.0 0.00 0.00 0.00 54 1013.5
20260507093602 12 0.0 0.0 0.00 0.00 0.00 54 1013.5
20260507093103 12 0.0 0.0 0.00 0.00 0.00 55 1013.7
20260507092102 12 0.0 0.0 0.00 0.00 0.00 56 1013.7
20260507091602 12 0.0 0.0 0.00 0.00 0.00 60 1013.7
20260507091103 11 0.0 0.0 0.00 0.00 0.00 60 1013.7
20260507085102 11 0.0 0.0 0.00 0.00 0.00 64 1013.7
20260507084602 11 0.0 0.0 0.00 0.00 0.00 64 1013.8
20260507084102 11 0.0 0.0 0.00 0.00 0.00 69 1013.7
20260507083603 11 0.0 0.0 0.00 0.00 0.00 68 1013.8
20260507083103 11 0.0 0.0 0.00 0.00 0.00 68 1013.9
20260507082603 11 0.0 0.0 0.00 0.00 0.00 70 1013.9
20260507082108 11 0.0 0.0 0.00 0.00 0.00 70 1013.9
20260507081602 10 0.0 0.0 0.00 0.00 0.00 71 1014.0
20260507081102 10 0.0 0.0 0.00 0.00 0.00 73 1014.0
20260507080602 10 0.0 0.0 0.00 0.00 0.00 75 1014.0
20260507075603 10 0.0 0.0 0.00 0.00 0.00 75 1014.2
20260507075102 10 0.0 0.0 0.00 0.00 0.00 76 1014.2
20260507074602 10 0.0 0.0 0.00 0.00 0.00 75 1014.2
20260507074103 10 0.0 0.0 0.00 0.00 0.00 76 1014.2
20260507073602 10 0.0 0.0 0.00 0.00 0.00 77 1014.2
20260507073102 10 0.0 0.0 0.00 0.00 0.00 78 1014.3
20260507072602 10 0.0 0.0 0.00 0.00 0.00 78 1014.2
20260507072102 10 0.0 0.0 0.00 0.00 0.00 81 1014.2
20260507071602 10 0.0 0.0 0.00 0.00 0.00 79 1014.2
20260507071102 10 0.0 0.0 0.00 0.00 0.00 78 1014.2
20260507070603 10 0.0 0.0 0.00 0.00 0.00 81 1014.2
20260507065602 10 0.0 0.0 0.00 0.00 0.00 81 1014.2
20260507065103 10 0.0 0.0 0.00 0.00 0.00 80 1014.1
20260507064603 10 0.0 0.0 0.00 0.00 0.00 81 1014.2
20260507064102 9 0.0 0.0 0.00 0.00 0.00 83 1014.2
20260507063103 9 0.0 0.0 0.00 0.00 0.00 84 1014.3
20260507062602 9 0.0 0.0 0.00 0.00 0.00 83 1014.2
20260507062102 9 0.0 0.0 0.00 0.00 0.00 84 1014.2
20260507061602 9 0.0 0.0 0.00 0.00 0.00 85 1014.2
20260507061102 9 0.0 0.0 0.00 0.00 0.00 84 1014.3
20260507060602 9 0.0 0.0 0.00 0.00 0.00 85 1014.3
20260507055602 9 0.0 0.0 0.00 0.00 0.00 85 1014.4
20260507055103 9 0.0 0.0 0.00 0.00 0.00 85 1014.4
20260507054603 9 0.0 0.0 0.00 0.00 0.00 87 1014.3
20260507054102 8 0.0 0.0 0.00 0.00 0.00 88 1014.3
20260507053603 9 0.0 0.0 0.00 0.00 0.00 86 1014.3
20260507053102 9 0.0 0.0 0.00 0.00 0.00 84 1014.3
20260507052603 8 0.0 0.0 0.00 0.00 0.00 85 1014.3
20260507052102 8 0.0 0.0 0.00 0.00 0.00 87 1014.3
20260507051603 8 0.0 0.0 0.00 0.00 0.00 86 1014.2
20260507051102 8 0.0 0.0 0.00 0.00 0.00 86 1014.2
20260507050603 8 0.0 0.0 0.00 0.00 0.00 87 1014.1
20260507045102 9 0.0 0.0 0.00 0.00 0.00 86 1013.9
20260507044603 8 0.0 0.0 0.00 0.00 0.00 88 1013.9
20260507044101 9 0.0 0.0 0.00 0.00 0.00 86 1013.9
20260507043603 9 0.0 0.0 0.00 0.00 0.00 87 1013.9
20260507043102 9 0.0 0.0 0.00 0.00 0.00 88 1013.8
20260507042604 9 0.0 0.0 0.00 0.00 0.00 87 1013.9
20260507042103 10 0.0 0.0 0.00 0.00 0.00 86 1013.8
20260507041603 9 0.0 0.0 0.00 0.00 0.00 87 1013.8
20260507041102 9 0.0 0.0 0.00 0.00 0.00 89 1013.9
20260507040604 9 0.0 0.0 0.00 0.00 0.00 89 1013.8
20260507035602 9 0.0 0.0 0.00 0.00 0.00 88 1013.8
20260507035103 10 0.0 0.0 0.00 0.00 0.00 87 1013.8
20260507034602 10 0.0 0.0 0.00 0.00 0.00 88 1013.7
20260507034102 10 0.0 0.0 0.00 0.00 0.00 88 1013.7
20260507033603 9 0.0 0.0 0.00 0.00 0.00 87 1013.8
20260507033102 10 0.0 0.0 0.00 0.00 0.00 87 1013.8
20260507032602 10 0.0 0.0 0.00 0.00 0.00 88 1013.8
20260507032102 10 0.0 0.0 0.00 0.00 0.00 89 1013.8
20260507031603 9 0.0 0.0 0.00 0.00 0.00 91 1013.8
20260507031102 9 0.0 0.0 0.00 0.00 0.00 92 1013.8
20260507030602 9 0.0 0.0 0.00 0.00 0.00 91 1013.9
20260507025603 9 0.0 0.0 0.00 0.00 0.00 93 1013.9
20260507025103 10 0.0 0.0 0.00 0.00 0.00 89 1013.9
20260507024603 10 0.0 0.0 0.00 0.00 0.00 89 1013.9
20260507024103 9 0.0 0.0 0.00 0.00 0.00 90 1014.0
20260507022603 9 0.0 0.0 0.00 0.00 0.00 90 1014.0
20260507022102 9 0.0 0.0 0.00 0.00 0.00 90 1014.0
20260507021603 9 0.0 0.0 0.00 0.00 0.00 90 1013.9
20260507021102 10 0.0 0.0 0.00 0.00 0.00 88 1013.8
20260507020603 10 0.0 0.0 0.00 0.00 0.00 86 1013.8
20260507020104 9 0.0 0.0 0.00 0.00 0.00 89 1013.9
20260507015603 9 0.0 0.0 0.00 0.00 0.00 89 1013.9
20260507015104 9 0.0 0.0 0.00 0.00 0.00 90 1013.9
20260507014102 9 0.0 0.0 0.00 0.00 0.00 87 1014.0
20260507013601 10 0.0 0.0 0.00 0.00 0.00 86 1013.9
20260507013103 9 0.0 0.0 0.00 0.00 0.00 89 1014.0
20260507012602 8 0.0 0.0 0.00 0.00 0.00 88 1014.0
20260507012103 9 0.0 0.0 0.00 0.00 0.00 87 1013.9
20260507011603 9 0.0 0.0 0.00 0.00 0.00 84 1013.9
20260507011103 9 0.0 0.0 0.00 0.00 0.00 85 1013.8
20260507010602 10 0.0 0.0 0.00 0.00 0.00 85 1013.9
20260507005603 10 0.0 0.0 0.00 0.00 0.00 84 1013.9
20260507005102 10 0.0 0.0 0.00 0.00 0.00 85 1014.0
20260507004602 10 0.0 0.0 0.00 0.00 0.00 87 1014.1
20260507004103 10 0.0 0.0 0.00 0.00 0.00 86 1014.2
20260507003603 10 0.0 0.0 0.00 0.00 0.00 85 1014.2
20260507003102 10 0.0 0.0 0.00 0.00 0.00 85 1014.2
20260507002603 10 0.0 0.0 0.00 0.00 0.00 84 1014.2
20260507002102 10 0.0 0.0 0.00 0.00 0.00 85 1014.3
20260507001602 10 0.0 0.0 0.00 0.00 0.00 85 1014.3
20260507001102 9 0.0 0.0 0.00 0.00 0.00 86 1014.4
20260507000602 10 0.0 0.0 0.00 0.00 0.00 85 1014.3
20260506235602 10 0.0 0.0 0.00 0.00 0.00 87 1014.4
20260506235102 10 0.0 0.0 0.00 0.00 0.00 86 1014.4
20260506234603 10 0.0 0.0 0.00 0.00 0.00 86 1014.3
20260506234102 10 0.0 0.0 0.00 0.00 0.00 84 1014.3
20260506233602 9 0.0 0.0 0.00 0.00 0.00 86 1014.4
20260506233103 8 0.0 0.0 0.00 0.00 0.00 86 1014.4
20260506232603 9 0.0 0.0 0.00 0.00 0.00 84 1014.3
20260506232103 9 0.0 0.0 0.00 0.00 0.00 84 1014.3
20260506231602 10 0.0 0.0 0.00 0.00 0.00 85 1014.3
20260506231102 9 0.0 0.0 0.00 0.00 0.00 85 1014.3
20260506230603 9 0.0 0.0 0.00 0.00 0.00 86 1014.3
20260506225603 9 0.0 0.0 0.00 0.00 0.00 88 1014.3
20260506225102 9 0.0 0.0 0.00 0.00 0.00 87 1014.3
20260506224603 9 0.0 0.0 0.00 0.00 0.00 86 1014.3
20260506224102 10 0.0 0.0 0.00 0.00 0.00 86 1014.3
20260506223602 10 0.0 0.0 0.00 0.00 0.00 86 1014.3
20260506223102 10 0.0 0.0 0.00 0.00 0.00 85 1014.2
20260506222603 10 0.0 0.0 0.00 0.00 0.00 85 1014.1
20260506222103 10 0.0 0.0 0.00 0.00 0.00 85 1014.2
20260506221602 10 0.0 0.0 0.00 0.00 0.00 85 1014.1
20260506221103 10 0.0 0.0 0.00 0.00 0.00 83 1014.2
20260506220603 10 0.0 0.0 0.00 0.00 0.00 85 1014.2
20260506215603 10 0.0 0.0 0.00 0.00 0.00 83 1014.1
20260506215102 10 0.0 0.0 0.00 0.00 0.00 84 1014.0
20260506214602 10 0.0 0.0 0.00 0.00 0.00 84 1014.0
20260506214102 10 0.0 0.0 0.00 0.00 0.00 86 1014.0
20260506213602 10 0.0 0.0 0.00 0.00 0.00 86 1014.0
20260506213102 10 0.0 0.0 0.00 0.00 0.00 86 1013.9
20260506212602 10 0.0 0.0 0.00 0.00 0.00 88 1013.9
20260506212103 10 0.0 0.0 0.00 0.00 0.00 89 1013.8
20260506211603 10 0.0 0.0 0.00 0.00 0.00 88 1013.8
20260506211102 10 0.0 0.0 0.00 0.00 0.00 90 1013.8
20260506210602 10 0.0 0.0 0.00 0.00 0.00 84 1013.7
20260506205602 10 0.0 0.0 0.00 0.00 0.00 84 1013.7
20260506205102 10 0.0 0.0 0.00 0.00 0.00 85 1013.6
20260506204602 10 0.0 0.0 0.00 0.00 0.00 85 1013.7
20260506204103 10 0.0 0.0 0.00 0.00 0.00 85 1013.6
20260506203603 10 0.0 0.0 0.00 0.00 0.00 88 1013.6
20260506203102 10 0.0 0.0 0.00 0.00 0.00 88 1013.6
20260506202602 10 0.0 0.0 0.00 0.00 0.00 86 1013.5
20260506202102 10 0.0 0.0 0.00 0.00 0.00 83 1013.5
20260506201603 10 0.0 0.0 0.00 0.00 0.00 84 1013.4
20260506201102 10 0.0 0.0 0.00 0.00 0.00 82 1013.5
20260506200603 10 0.0 0.0 0.00 0.00 0.00 82 1013.4
20260506195603 10 0.0 0.0 0.00 0.00 0.00 84 1013.3
20260506195103 10 0.0 0.0 0.00 0.00 0.00 83 1013.2
20260506194602 10 0.0 0.0 0.00 0.00 0.00 82 1013.1
20260506194103 10 0.0 0.0 0.00 0.00 0.00 85 1013.0
20260506193602 10 0.0 0.0 0.00 0.00 0.00 84 1012.9
20260506193102 10 0.0 0.0 0.00 0.00 0.00 83 1012.8
20260506192603 10 0.0 0.0 0.00 0.00 0.00 83 1012.8
20260506192103 10 0.0 0.0 0.00 0.00 0.00 86 1012.8
20260506191602 10 0.0 0.0 0.00 0.00 0.00 87 1012.7
20260506191102 10 0.0 0.0 0.00 0.00 0.00 88 1012.7
20260506190603 10 0.0 0.0 0.00 0.00 0.00 87 1012.6
20260506185602 10 0.0 0.0 0.00 0.00 0.00 87 1012.5
20260506185103 10 0.0 0.0 0.00 0.00 0.00 85 1012.4
20260506184602 11 0.0 0.0 0.00 0.00 0.00 83 1012.4
20260506184102 11 0.0 0.0 0.00 0.00 0.00 84 1012.4
20260506183603 10 0.0 0.0 0.00 0.00 0.00 83 1012.3
20260506183103 11 0.0 0.0 0.00 0.00 0.00 86 1012.2
20260506182603 11 0.0 0.0 0.00 0.00 0.00 84 1012.3
20260506182102 11 0.0 0.0 0.00 0.00 0.00 83 1012.3
20260506181103 11 0.0 0.0 0.00 0.00 0.00 86 1012.3
20260506180602 11 0.0 0.0 0.00 0.00 0.00 87 1012.2
20260506175603 11 0.0 0.0 0.00 0.00 0.00 89 1012.1
20260506175103 11 0.0 0.0 0.00 0.00 0.00 88 1012.1
20260506174603 11 0.0 0.0 0.00 0.00 0.00 81 1012.1
20260506174102 11 0.0 0.0 0.00 0.00 0.00 83 1012.0
20260506173603 11 0.0 0.0 0.00 0.00 0.00 87 1011.9
20260506173102 11 0.0 0.0 0.00 0.00 0.00 88 1012.0
20260506172603 11 0.0 0.0 0.00 0.00 0.00 87 1012.0
20260506172102 11 0.0 0.0 0.00 0.00 0.00 91 1011.9
20260506171602 11 0.0 0.0 0.00 0.00 0.00 90 1011.9
20260506171103 11 0.0 0.0 0.00 0.00 0.00 93 1011.7
20260506170602 11 0.0 0.0 0.00 0.00 0.00 92 1011.5
20260506165602 11 0.0 0.0 0.00 0.00 0.00 89 1011.3
20260506165103 11 0.0 0.0 0.00 0.00 0.00 88 1011.2
20260506164603 11 0.0 0.0 0.00 0.00 0.00 84 1011.2
20260506164103 11 0.0 0.0 0.00 0.00 0.00 76 1011.1
20260506163602 12 0.0 0.0 0.00 0.00 0.00 78 1011.0
20260506163103 12 0.0 0.0 0.00 0.00 0.00 73 1011.0
20260506162601 12 0.0 0.0 0.00 0.00 0.00 76 1010.9
20260506162102 12 0.0 0.0 0.00 0.00 0.00 72 1010.9
20260506161603 12 0.0 0.0 0.00 0.00 0.00 70 1010.8